contact:dominique.lefevre@mio.osupytheas.fr, maurice.libes@osupytheas.fr, didier.mallarino@osupytheas.fr
Project:EMSO http://www.emso-fr.org/EMSO-France
Depth: 2436.0 m
Title:EMSO Ligure Ouest : Data MII capteur AQUADOPP
Date,Latitude,Longitude,X_East,Y_North,Z_Up,Amplitude_X,Amplitude_Y,Amplitude_Z,Batterie,SoundSpeed,Heading,Pitch,Roll,Pressure,TIS,Speed,Direction
, degrees North, degrees East, m.s-1, m.s-1,m.s-1, 1, 1, 1, Volt, m.s-1, degree, degree, degree, dbar, degree_C, m.s-1, degree
2019-09-19T00:09:04,42.805,6.029,0.002,-0.031,0.001,102.0,105.0,99.0,13.4,1505.2,327.8,-0.7,1.9,2470.143,13.29,0.031,176.3
2019-09-19T00:12:05,42.805,6.029,-0.036,-0.028,-0.07,102.0,106.0,99.0,13.4,1505.2,325.5,-0.7,1.8,2470.159,13.3,0.045,232.1
2019-09-19T00:15:06,42.805,6.029,0.013,-0.035,0.037,102.0,106.0,100.0,13.4,1505.3,323.8,-0.7,1.8,2470.113,13.31,0.037,159.6
2019-09-19T00:18:07,42.805,6.029,-0.01,-0.029,-0.051,101.0,104.0,100.0,13.4,1505.3,323.1,-0.7,1.8,2470.108,13.32,0.03,199.0
2019-09-19T00:21:08,42.805,6.029,-0.033,-0.04,-0.03,102.0,104.0,101.0,13.4,1505.3,324.0,-0.7,1.8,2470.056,13.32,0.051,219.5
2019-09-19T00:24:09,42.805,6.029,-0.004,-0.032,-0.006,103.0,105.0,99.0,13.4,1505.3,323.4,-0.7,1.9,2470.126,13.32,0.032,187.1
2019-09-19T00:27:10,42.805,6.029,-0.033,-0.031,-0.025,103.0,105.0,98.0,13.4,1505.3,323.0,-0.8,1.9,2470.089,13.32,0.045,226.8
2019-09-19T00:30:11,42.805,6.029,-0.026,-0.009,-0.038,101.0,106.0,99.0,13.4,1505.3,328.6,-0.7,1.8,2470.126,13.33,0.027,250.9
2019-09-19T00:33:12,42.805,6.029,-0.018,-0.025,0.001,102.0,105.0,99.0,13.3,1505.3,327.7,-0.7,1.8,2470.089,13.33,0.03,215.8
2019-09-19T00:36:13,42.805,6.029,-0.003,-0.051,-0.036,103.0,106.0,100.0,13.4,1505.3,324.2,-0.7,1.8,2470.029,13.33,0.051,183.4
2019-09-19T00:39:14,42.805,6.029,0.025,-0.046,-0.012,101.0,106.0,97.0,13.4,1505.3,325.8,-0.7,1.8,2470.103,13.33,0.052,151.5
2019-09-19T00:42:15,42.805,6.029,-0.023,-0.02,-0.014,103.0,105.0,100.0,13.4,1505.3,324.9,-0.7,1.9,2470.082,13.33,0.03,229.0
2019-09-19T00:45:16,42.805,6.029,0.027,-0.02,-0.036,103.0,106.0,99.0,13.4,1505.3,326.3,-0.7,1.8,2470.034,13.33,0.033,126.5
2019-09-19T00:48:17,42.805,6.029,0.03,-0.024,0.018,103.0,104.0,98.0,13.3,1505.3,325.0,-0.7,1.8,2470.034,13.33,0.038,128.7
2019-09-19T00:51:18,42.805,6.029,-0.016,-0.036,0.009,101.0,107.0,101.0,13.4,1505.3,324.9,-0.7,1.8,2470.065,13.33,0.039,204.0
2019-09-19T00:54:19,42.805,6.029,-0.016,-0.039,-0.044,102.0,105.0,100.0,13.4,1505.3,324.2,-0.7,1.8,2469.998,13.33,0.042,202.3
2019-09-19T00:57:20,42.805,6.029,-0.018,-0.034,-0.041,102.0,105.0,99.0,13.4,1505.3,327.1,-0.7,1.8,2470.036,13.33,0.038,207.9
2019-09-19T01:00:21,42.805,6.029,0.015,-0.034,-0.007,103.0,106.0,100.0,13.4,1505.3,325.4,-0.7,1.8,2470.064,13.33,0.037,156.2
2019-09-19T01:03:22,42.805,6.029,0.002,-0.022,-0.023,102.0,105.0,101.0,13.4,1505.3,326.9,-0.7,1.8,2470.04,13.33,0.022,174.8
2019-09-19T01:06:23,42.805,6.029,0.049,-0.02,0.014,103.0,106.0,99.0,13.4,1505.3,325.4,-0.7,1.9,2470.047,13.33,0.052,112.2
2019-09-19T01:09:24,42.805,6.029,-0.01,-0.015,-0.046,102.0,107.0,100.0,13.4,1505.3,322.8,-0.7,1.8,2470.06,13.33,0.018,213.7
2019-09-19T01:12:25,42.805,6.029,-0.003,-0.027,-0.013,103.0,105.0,100.0,13.4,1505.3,325.8,-0.7,1.8,2470.013,13.33,0.027,186.3
2019-09-19T01:15:26,42.805,6.029,0.009,-0.019,-0.023,103.0,105.0,99.0,13.3,1505.3,326.5,-0.7,1.8,2470.067,13.33,0.021,154.7
2019-09-19T01:18:27,42.805,6.029,0.003,-0.02,-0.004,103.0,106.0,99.0,13.4,1505.3,324.1,-0.7,1.8,2470.008,13.33,0.02,171.5
2019-09-19T01:21:28,42.805,6.029,0.018,-0.007,0.023,103.0,105.0,100.0,13.4,1505.3,324.9,-0.7,1.8,2469.991,13.33,0.019,111.2
2019-09-19T01:24:29,42.805,6.029,0.022,-0.023,0.029,105.0,106.0,101.0,13.3,1505.3,325.6,-0.7,1.8,2470.017,13.33,0.031,136.3
2019-09-19T01:27:30,42.805,6.029,0.03,-0.023,0.02,103.0,105.0,100.0,13.4,1505.3,325.1,-0.7,1.8,2470.054,13.33,0.037,127.5
2019-09-19T01:30:31,42.805,6.029,-0.007,-0.004,-0.018,103.0,105.0,100.0,13.3,1505.3,326.5,-0.7,1.9,2469.994,13.33,0.008,240.3
2019-09-19T01:33:32,42.805,6.029,-0.016,-0.022,-0.034,103.0,106.0,99.0,13.4,1505.3,327.2,-0.7,1.8,2470.003,13.33,0.027,216.0
2019-09-19T01:36:33,42.805,6.029,-0.014,-0.027,-0.065,102.0,105.0,100.0,13.3,1505.3,326.5,-0.7,1.8,2469.986,13.33,0.03,207.4
2019-09-19T01:39:34,42.805,6.029,-0.003,-0.036,-0.04,104.0,106.0,99.0,13.4,1505.3,326.6,-0.7,1.9,2470.0,13.33,0.036,184.8
2019-09-19T01:42:35,42.805,6.029,0.022,-0.019,0.049,103.0,106.0,100.0,13.3,1505.3,326.2,-0.7,1.9,2469.988,13.33,0.029,130.8
2019-09-19T01:45:36,42.805,6.029,0.024,-0.015,-0.01,102.0,106.0,99.0,13.3,1505.3,325.7,-0.7,1.8,2469.945,13.33,0.028,122.0
2019-09-19T01:48:37,42.805,6.029,0.053,-0.028,0.011,103.0,105.0,100.0,13.3,1505.3,324.9,-0.7,1.9,2469.988,13.33,0.059,117.9
2019-09-19T01:51:38,42.805,6.029,0.035,-0.009,0.049,103.0,104.0,100.0,13.4,1505.3,324.0,-0.7,1.8,2470.019,13.33,0.036,104.4
2019-09-19T01:54:39,42.805,6.029,0.027,-0.031,-0.004,104.0,105.0,98.0,13.4,1505.3,325.3,-0.7,1.8,2469.965,13.33,0.041,138.9
2019-09-19T01:57:40,42.805,6.029,-0.005,-0.017,-0.008,102.0,106.0,99.0,13.4,1505.3,325.4,-0.7,1.8,2470.024,13.33,0.017,196.4
2019-09-19T02:00:41,42.805,6.029,0.013,-0.014,0.025,103.0,106.0,100.0,13.3,1505.3,322.8,-0.7,1.8,2470.014,13.33,0.019,137.1
2019-09-19T02:03:42,42.805,6.029,-0.017,-0.041,-0.039,106.0,106.0,101.0,13.3,1505.3,327.3,-0.7,1.8,2469.99,13.33,0.044,202.5
2019-09-19T02:06:43,42.805,6.029,0.027,-0.014,0.035,105.0,106.0,100.0,13.3,1505.3,327.5,-0.7,1.8,2469.956,13.33,0.03,117.4
2019-09-19T02:09:44,42.805,6.029,0.004,-0.027,-0.005,103.0,106.0,100.0,13.3,1505.3,326.7,-0.7,1.8,2470.003,13.33,0.027,171.6
2019-09-19T02:12:45,42.805,6.029,0.015,-0.025,0.008,103.0,105.0,100.0,13.4,1505.3,323.7,-0.8,1.8,2470.005,13.33,0.029,149.0
2019-09-19T02:15:46,42.805,6.029,0.015,-0.034,-0.015,103.0,106.0,101.0,13.3,1505.3,327.6,-0.7,1.8,2469.972,13.33,0.037,156.2
2019-09-19T02:18:47,42.805,6.029,0.031,-0.031,0.052,105.0,107.0,98.0,13.3,1505.3,325.4,-0.7,1.8,2470.018,13.33,0.043,135.0
2019-09-19T02:21:48,42.805,6.029,0.006,-0.014,0.029,104.0,107.0,99.0,13.4,1505.3,325.2,-0.7,1.9,2469.973,13.33,0.015,156.8
2019-09-19T02:24:49,42.805,6.029,0.043,-0.029,0.009,102.0,106.0,100.0,13.4,1505.3,323.5,-0.7,1.8,2469.946,13.33,0.051,124.0
2019-09-19T02:27:50,42.805,6.029,0.04,-0.029,0.007,102.0,106.0,100.0,13.3,1505.3,328.5,-0.7,1.9,2469.953,13.33,0.049,125.9
2019-09-19T02:30:51,42.805,6.029,0.014,-0.007,-0.003,103.0,105.0,101.0,13.4,1505.3,327.2,-0.7,1.8,2469.998,13.33,0.015,116.6
2019-09-19T02:33:52,42.805,6.029,0.034,-0.036,0.022,105.0,106.0,98.0,13.3,1505.3,324.7,-0.7,1.8,2469.925,13.33,0.049,136.6
2019-09-19T02:36:53,42.805,6.029,0.042,-0.035,0.02,102.0,107.0,99.0,13.3,1505.3,324.7,-0.7,1.8,2469.996,13.33,0.054,129.8
2019-09-19T02:39:54,42.805,6.029,0.028,-0.016,-0.015,102.0,106.0,100.0,13.3,1505.3,326.6,-0.7,1.8,2470.0,13.33,0.032,119.7
2019-09-19T02:42:55,42.805,6.029,0.019,-0.032,0.023,104.0,104.0,100.0,13.4,1505.3,324.1,-0.7,1.8,2469.976,13.33,0.037,149.3
2019-09-19T02:45:56,42.805,6.029,0.01,-0.012,0.015,104.0,104.0,100.0,13.3,1505.3,324.3,-0.7,1.9,2469.981,13.33,0.015,140.2
2019-09-19T02:48:57,42.805,6.029,0.022,-0.021,0.009,104.0,106.0,101.0,13.4,1505.3,328.2,-0.7,1.8,2469.964,13.33,0.03,133.7
2019-09-19T02:51:58,42.805,6.029,0.048,-0.014,0.029,103.0,106.0,100.0,13.3,1505.3,328.1,-0.7,1.8,2469.995,13.33,0.05,106.3
2019-09-19T02:54:59,42.805,6.029,0.036,-0.019,0.018,103.0,104.0,100.0,13.4,1505.3,326.3,-0.7,1.8,2470.006,13.33,0.04,117.8
2019-09-19T02:58:00,42.805,6.029,0.039,-0.025,-0.006,104.0,104.0,99.0,13.3,1505.3,327.8,-0.7,1.8,2469.997,13.33,0.046,122.7
2019-09-19T03:01:01,42.805,6.029,-0.007,-0.021,-0.006,102.0,105.0,99.0,13.4,1505.3,329.0,-0.7,1.9,2470.008,13.33,0.022,198.4
2019-09-19T03:04:02,42.805,6.029,0.035,-0.014,0.012,102.0,105.0,100.0,13.3,1505.3,327.7,-0.7,1.8,2469.971,13.33,0.037,111.8
2019-09-19T03:07:03,42.805,6.029,0.015,-0.022,-0.019,103.0,104.0,100.0,13.3,1505.3,324.8,-0.8,1.8,2469.983,13.33,0.026,145.7
2019-09-19T03:10:04,42.805,6.029,0.051,-0.007,0.034,103.0,105.0,99.0,13.3,1505.3,326.4,-0.7,1.8,2469.996,13.33,0.051,97.8
2019-09-19T03:13:05,42.805,6.029,0.023,-0.012,0.018,102.0,106.0,100.0,13.4,1505.3,324.8,-0.7,1.8,2469.952,13.33,0.025,117.6
2019-09-19T03:16:06,42.805,6.029,0.056,-0.029,0.064,103.0,105.0,99.0,13.4,1505.3,326.3,-0.7,1.8,2469.967,13.33,0.063,117.4
2019-09-19T03:19:07,42.805,6.029,-0.024,-0.036,-0.035,102.0,106.0,101.0,13.4,1505.3,326.7,-0.7,1.9,2469.978,13.33,0.043,213.7
2019-09-19T03:22:08,42.805,6.029,-0.018,-0.008,-0.006,103.0,107.0,101.0,13.3,1505.3,328.4,-0.7,1.9,2469.999,13.33,0.019,246.0
2019-09-19T03:25:09,42.805,6.029,-0.001,-0.008,-0.039,102.0,107.0,100.0,13.4,1505.3,325.2,-0.7,1.8,2469.968,13.33,0.008,187.1
2019-09-19T03:28:10,42.805,6.029,-0.007,-0.03,-0.03,104.0,107.0,99.0,13.3,1505.3,327.1,-0.7,1.8,2469.964,13.33,0.03,193.1
2019-09-19T03:31:11,42.805,6.029,0.052,-0.034,0.053,102.0,106.0,100.0,13.4,1505.3,323.7,-0.7,1.8,2469.986,13.33,0.062,123.2
2019-09-19T03:34:12,42.805,6.029,0.018,-0.019,0.018,103.0,106.0,100.0,13.3,1505.3,324.9,-0.7,1.8,2470.014,13.33,0.026,136.5
2019-09-19T03:37:13,42.805,6.029,0.016,-0.016,-0.003,103.0,106.0,99.0,13.4,1505.3,325.0,-0.7,1.8,2469.945,13.33,0.022,135.0
2019-09-19T03:40:14,42.805,6.029,0.023,-0.025,0.042,103.0,105.0,100.0,13.4,1505.3,323.5,-0.7,1.8,2469.954,13.33,0.033,137.4
2019-09-19T03:43:15,42.805,6.029,0.03,-0.028,0.02,102.0,105.0,100.0,13.3,1505.3,324.3,-0.7,1.8,2469.918,13.33,0.041,133.0
2019-09-19T03:46:16,42.805,6.029,0.01,-0.015,0.014,104.0,106.0,100.0,13.3,1505.3,324.8,-0.7,1.9,2469.944,13.33,0.018,146.3
2019-09-19T03:49:17,42.805,6.029,0.053,-0.016,0.052,102.0,105.0,99.0,13.4,1505.3,327.1,-0.8,1.8,2469.936,13.33,0.055,106.8
2019-09-19T03:52:18,42.805,6.029,0.05,-0.012,0.028,104.0,106.0,100.0,13.4,1505.3,328.2,-0.7,1.8,2469.939,13.33,0.051,103.5
2019-09-19T03:55:19,42.805,6.029,0.03,-0.024,0.006,104.0,106.0,101.0,13.4,1505.3,327.9,-0.7,1.8,2469.945,13.33,0.038,128.7
2019-09-19T03:58:20,42.805,6.029,0.039,-0.005,0.019,103.0,105.0,99.0,13.3,1505.3,326.9,-0.7,1.8,2469.955,13.33,0.039,97.3
2019-09-19T04:01:21,42.805,6.029,0.019,-0.015,0.015,102.0,105.0,99.0,13.4,1505.3,324.7,-0.7,1.8,2469.966,13.33,0.024,128.3
2019-09-19T04:04:22,42.805,6.029,0.027,-0.022,0.033,103.0,106.0,100.0,13.4,1505.3,324.9,-0.7,1.9,2469.946,13.33,0.034,129.2
2019-09-19T04:07:23,42.805,6.029,0.031,-0.036,0.017,103.0,106.0,100.0,13.3,1505.3,325.8,-0.7,1.8,2469.915,13.33,0.047,139.3
2019-09-19T04:10:24,42.805,6.029,0.034,-0.025,0.026,104.0,105.0,98.0,13.4,1505.3,325.1,-0.7,1.8,2469.948,13.33,0.042,126.3
2019-09-19T04:13:25,42.805,6.029,0.034,-0.015,0.022,102.0,106.0,99.0,13.4,1505.3,324.3,-0.7,1.8,2469.972,13.33,0.037,113.8
2019-09-19T04:16:26,42.805,6.029,0.04,-0.019,0.033,103.0,106.0,101.0,13.3,1505.3,325.5,-0.7,1.8,2469.933,13.33,0.044,115.4
2019-09-19T04:19:27,42.805,6.029,0.039,-0.017,0.012,102.0,106.0,99.0,13.4,1505.3,325.1,-0.7,1.8,2469.955,13.33,0.042,113.5
2019-09-19T04:22:28,42.805,6.029,0.01,-0.031,-0.009,103.0,105.0,100.0,13.4,1505.3,324.7,-0.7,1.9,2469.957,13.33,0.032,162.1
2019-09-19T04:25:29,42.805,6.029,0.008,-0.043,0.003,102.0,105.0,101.0,13.4,1505.3,327.0,-0.7,1.9,2469.96,13.33,0.043,169.5
2019-09-19T04:28:30,42.805,6.029,0.008,-0.019,0.016,103.0,106.0,100.0,13.4,1505.3,324.2,-0.7,1.9,2469.955,13.33,0.02,157.2
2019-09-19T04:31:31,42.805,6.029,0.024,-0.002,0.046,103.0,106.0,99.0,13.4,1505.3,324.7,-0.7,1.8,2469.932,13.33,0.024,94.8
2019-09-19T04:34:32,42.805,6.029,0.013,-0.021,-0.013,102.0,106.0,99.0,13.3,1505.3,323.0,-0.7,1.8,2469.948,13.33,0.024,148.2
2019-09-19T04:37:33,42.805,6.029,0.028,-0.012,0.018,103.0,105.0,100.0,13.3,1505.3,328.4,-0.7,1.8,2469.959,13.33,0.03,113.2
2019-09-19T04:40:34,42.805,6.029,0.042,-0.054,0.016,102.0,105.0,99.0,13.4,1505.3,326.1,-0.7,1.8,2469.94,13.33,0.068,142.1
2019-09-19T04:43:35,42.805,6.029,0.037,-0.022,0.002,103.0,106.0,100.0,13.4,1505.3,325.2,-0.7,1.8,2469.971,13.33,0.043,120.7
2019-09-19T04:46:36,42.805,6.029,0.023,-0.021,0.006,103.0,106.0,100.0,13.4,1505.3,325.5,-0.7,1.8,2469.988,13.33,0.031,132.4
2019-09-19T04:49:37,42.805,6.029,0.032,0.004,0.024,102.0,104.0,100.0,13.4,1505.3,326.1,-0.7,1.8,2469.956,13.33,0.032,82.9
2019-09-19T04:52:38,42.805,6.029,0.035,-0.021,0.02,102.0,105.0,99.0,13.4,1505.3,324.6,-0.8,1.8,2469.942,13.33,0.04,121.0
2019-09-19T04:55:39,42.805,6.029,0.033,-0.019,-0.007,102.0,105.0,98.0,13.4,1505.3,324.8,-0.7,1.8,2469.963,13.33,0.038,119.9
2019-09-19T04:58:40,42.805,6.029,0.051,-0.004,0.047,103.0,107.0,100.0,13.3,1505.3,324.4,-0.7,1.8,2469.913,13.33,0.051,94.5
2019-09-19T05:01:41,42.805,6.029,0.033,-0.036,0.004,103.0,106.0,99.0,13.4,1505.3,325.4,-0.7,1.9,2469.949,13.33,0.048,137.5
2019-09-19T05:04:42,42.805,6.029,0.033,0.002,0.011,103.0,106.0,100.0,13.4,1505.3,326.8,-0.7,1.8,2469.961,13.33,0.033,86.5
2019-09-19T05:07:43,42.805,6.029,0.02,-0.014,-0.005,102.0,106.0,100.0,13.4,1505.3,325.4,-0.7,1.9,2469.968,13.33,0.024,125.0
2019-09-19T05:10:44,42.805,6.029,-0.018,-0.007,-0.008,102.0,106.0,100.0,13.4,1505.3,326.5,-0.7,1.8,2470.007,13.33,0.019,248.8
2019-09-19T05:13:45,42.805,6.029,0.019,-0.013,0.0,104.0,106.0,100.0,13.4,1505.3,322.8,-0.7,1.8,2469.961,13.33,0.023,124.4
2019-09-19T05:16:46,42.805,6.029,0.035,-0.02,-0.002,102.0,107.0,100.0,13.4,1505.3,328.5,-0.7,1.8,2469.979,13.32,0.04,119.7
2019-09-19T05:19:47,42.805,6.029,0.019,-0.03,0.013,103.0,108.0,99.0,13.4,1505.3,327.0,-0.7,1.8,2469.948,13.33,0.035,147.7
2019-09-19T05:22:48,42.805,6.029,-0.016,-0.015,-0.003,103.0,106.0,101.0,13.4,1505.3,323.5,-0.7,1.8,2469.927,13.33,0.021,226.9
2019-09-19T05:25:49,42.805,6.029,0.009,-0.014,0.014,103.0,107.0,100.0,13.4,1505.3,323.7,-0.7,1.8,2469.946,13.33,0.016,147.3
2019-09-19T05:28:50,42.805,6.029,0.016,-0.028,0.037,103.0,107.0,100.0,13.4,1505.3,327.8,-0.7,1.8,2469.972,13.33,0.032,150.3
2019-09-19T05:31:51,42.805,6.029,0.023,-0.016,0.009,101.0,109.0,100.0,13.4,1505.3,327.4,-0.7,1.8,2470.035,13.33,0.028,124.8
2019-09-19T05:34:52,42.805,6.029,0.009,-0.027,-0.01,102.0,106.0,99.0,13.4,1505.3,326.5,-0.7,1.9,2469.967,13.32,0.028,161.6
2019-09-19T05:37:53,42.805,6.029,0.027,-0.001,0.007,103.0,107.0,98.0,13.3,1505.3,325.4,-0.7,1.9,2469.963,13.32,0.027,92.1
2019-09-19T05:40:54,42.805,6.029,0.013,-0.016,0.008,104.0,108.0,99.0,13.4,1505.3,325.5,-0.7,1.8,2469.988,13.33,0.02,140.9
2019-09-19T05:43:55,42.805,6.029,0.01,-0.007,0.001,104.0,106.0,100.0,13.4,1505.3,327.5,-0.7,1.9,2469.963,13.33,0.012,125.0
2019-09-19T05:46:56,42.805,6.029,0.024,-0.017,0.0,103.0,105.0,100.0,13.4,1505.3,326.4,-0.7,1.8,2469.943,13.33,0.029,125.3
2019-09-19T05:49:57,42.805,6.029,0.02,-0.004,-0.011,103.0,104.0,100.0,13.4,1505.3,328.0,-0.7,1.8,2469.951,13.32,0.02,101.3
2019-09-19T05:52:58,42.805,6.029,0.021,-0.015,-0.004,102.0,108.0,100.0,13.3,1505.3,324.7,-0.7,1.8,2469.961,13.32,0.025,125.5
2019-09-19T05:55:59,42.805,6.029,-0.004,-0.017,-0.02,102.0,105.0,100.0,13.3,1505.3,326.1,-0.7,1.8,2469.987,13.32,0.017,193.2
2019-09-19T05:59:00,42.805,6.029,0.029,-0.005,-0.014,103.0,105.0,98.0,13.4,1505.3,327.1,-0.7,1.9,2469.993,13.32,0.029,99.8
2019-09-19T06:02:01,42.805,6.029,0.045,-0.015,0.03,104.0,105.0,100.0,13.4,1505.3,324.5,-0.7,1.8,2469.959,13.32,0.047,108.4
2019-09-19T06:05:02,42.805,6.029,0.032,-0.022,0.008,103.0,105.0,100.0,13.4,1505.3,325.8,-0.7,1.8,2469.952,13.33,0.038,124.5
2019-09-19T06:08:03,42.805,6.029,0.011,-0.012,0.004,102.0,106.0,99.0,13.3,1505.3,324.5,-0.7,1.8,2469.983,13.33,0.016,137.5
2019-09-19T06:11:04,42.805,6.029,0.024,-0.019,0.021,103.0,106.0,99.0,13.4,1505.3,324.2,-0.7,1.8,2469.953,13.33,0.03,128.4
2019-09-19T06:14:05,42.805,6.029,0.041,-0.008,0.024,103.0,105.0,100.0,13.4,1505.3,322.9,-0.8,1.8,2469.98,13.33,0.041,101.0
2019-09-19T06:17:06,42.805,6.029,0.037,-0.014,0.031,103.0,105.0,100.0,13.3,1505.3,328.7,-0.7,1.9,2469.964,13.33,0.039,110.7
2019-09-19T06:20:07,42.805,6.029,0.017,-0.016,0.019,103.0,105.0,100.0,13.4,1505.3,324.1,-0.7,1.8,2470.009,13.33,0.023,133.3
2019-09-19T06:23:08,42.805,6.029,0.026,0.016,0.003,104.0,105.0,99.0,13.4,1505.3,323.4,-0.7,1.8,2469.945,13.32,0.03,58.4
2019-09-19T06:26:09,42.805,6.029,0.005,-0.009,-0.003,103.0,107.0,99.0,13.4,1505.3,326.4,-0.7,1.8,2469.966,13.32,0.01,150.9
2019-09-19T06:29:10,42.805,6.029,0.037,0.008,0.014,103.0,106.0,100.0,13.4,1505.3,326.0,-0.7,1.8,2469.977,13.32,0.037,77.8
2019-09-19T06:32:11,42.805,6.029,-0.002,-0.03,-0.021,104.0,107.0,99.0,13.3,1505.3,326.1,-0.7,1.9,2469.996,13.32,0.03,183.8
2019-09-19T06:35:12,42.805,6.029,0.032,0.006,0.014,103.0,107.0,100.0,13.3,1505.3,328.1,-0.7,1.8,2469.991,13.32,0.032,79.4
2019-09-19T06:38:13,42.805,6.029,0.023,0.001,0.011,102.0,107.0,100.0,13.3,1505.3,328.5,-0.7,1.8,2469.978,13.32,0.023,87.5
2019-09-19T06:41:14,42.805,6.029,0.031,0.005,0.04,102.0,106.0,101.0,13.4,1505.3,328.2,-0.7,1.9,2470.006,13.32,0.031,80.8
2019-09-19T06:44:15,42.805,6.029,0.036,-0.002,0.006,104.0,106.0,99.0,13.3,1505.3,326.3,-0.7,1.9,2470.008,13.32,0.036,93.2
2019-09-19T06:47:16,42.805,6.029,0.02,-0.014,-0.021,103.0,107.0,99.0,13.3,1505.3,324.9,-0.7,1.9,2470.039,13.32,0.024,125.0
2019-09-19T06:50:18,42.805,6.029,0.035,0.003,0.018,103.0,107.0,100.0,13.4,1505.3,326.5,-0.7,1.9,2470.031,13.33,0.035,85.1
2019-09-19T06:53:18,42.805,6.029,0.022,0.002,0.02,104.0,105.0,101.0,13.3,1505.3,323.8,-0.7,1.8,2470.01,13.32,0.022,84.8
2019-09-19T06:56:19,42.805,6.029,0.007,-0.013,-0.016,103.0,107.0,100.0,13.3,1505.3,325.6,-0.7,1.8,2470.063,13.33,0.014,151.7
2019-09-19T06:59:20,42.805,6.029,-0.001,-0.002,-0.029,102.0,107.0,99.0,13.4,1505.3,326.9,-0.7,1.8,2470.025,13.33,0.002,206.6
2019-09-19T07:02:21,42.805,6.029,0.007,-0.013,0.034,104.0,107.0,100.0,13.4,1505.3,325.3,-0.7,1.9,2470.033,13.32,0.014,151.7
2019-09-19T07:05:22,42.805,6.029,0.03,-0.022,-0.024,105.0,105.0,99.0,13.3,1505.3,328.2,-0.7,1.8,2470.01,13.33,0.037,126.3
2019-09-19T07:08:23,42.805,6.029,0.014,0.015,0.008,103.0,107.0,99.0,13.3,1505.3,324.9,-0.7,1.8,2470.071,13.32,0.02,43.0
2019-09-19T07:11:24,42.805,6.029,0.028,0.017,0.014,103.0,108.0,99.0,13.4,1505.3,326.5,-0.7,1.8,2470.049,13.33,0.032,58.7
2019-09-19T07:14:25,42.805,6.029,0.009,-0.012,-0.017,103.0,106.0,99.0,13.3,1505.3,325.5,-0.7,1.8,2470.056,13.32,0.015,143.1
2019-09-19T07:17:26,42.805,6.029,0.037,-0.005,0.013,102.0,108.0,100.0,13.3,1505.3,327.2,-0.7,1.8,2470.03,13.32,0.037,97.7
2019-09-19T07:20:27,42.805,6.029,0.004,-0.023,-0.01,104.0,106.0,100.0,13.4,1505.3,326.6,-0.7,1.8,2470.033,13.32,0.023,170.1
2019-09-19T07:23:28,42.805,6.029,0.018,-0.022,0.009,102.0,106.0,99.0,13.3,1505.3,325.1,-0.7,1.9,2470.082,13.32,0.028,140.7
2019-09-19T07:26:29,42.805,6.029,0.019,0.013,0.009,102.0,107.0,99.0,13.3,1505.3,324.3,-0.7,1.8,2470.044,13.33,0.023,55.6
2019-09-19T07:29:30,42.805,6.029,0.025,-0.022,0.015,103.0,105.0,100.0,13.3,1505.3,325.5,-0.7,1.8,2470.01,13.32,0.033,131.3
2019-09-19T07:32:31,42.805,6.029,0.016,-0.009,0.012,103.0,107.0,99.0,13.4,1505.3,324.7,-0.7,1.9,2470.065,13.33,0.018,119.4
2019-09-19T07:35:32,42.805,6.029,0.028,-0.001,0.009,103.0,108.0,99.0,13.3,1505.3,323.9,-0.7,1.8,2470.099,13.33,0.028,92.0
2019-09-19T07:38:33,42.805,6.029,0.036,-0.016,0.017,102.0,107.0,99.0,13.3,1505.3,323.0,-0.7,1.8,2470.044,13.32,0.039,114.0
2019-09-19T07:41:34,42.805,6.029,0.019,0.004,0.012,103.0,106.0,99.0,13.4,1505.3,322.6,-0.7,1.9,2470.074,13.32,0.019,78.1
2019-09-19T07:44:35,42.805,6.029,0.017,-0.002,-0.031,103.0,106.0,98.0,13.4,1505.3,325.2,-0.7,1.8,2470.071,13.32,0.017,96.7
2019-09-19T07:47:36,42.805,6.029,0.019,-0.015,-0.016,103.0,105.0,98.0,13.3,1505.3,325.3,-0.7,1.8,2470.059,13.32,0.024,128.3
2019-09-19T07:50:37,42.805,6.029,0.037,-0.019,-0.012,102.0,105.0,98.0,13.3,1505.3,323.2,-0.7,1.8,2470.045,13.32,0.041,117.2
2019-09-19T07:53:38,42.805,6.029,0.011,0.0,0.02,101.0,107.0,100.0,13.4,1505.3,326.0,-0.7,1.8,2470.109,13.32,0.011,90.0
2019-09-19T07:56:39,42.805,6.029,0.011,-0.001,-0.017,101.0,105.0,99.0,13.3,1505.3,326.3,-0.7,1.8,2470.057,13.33,0.011,95.2
2019-09-19T07:59:40,42.805,6.029,0.028,-0.001,0.003,102.0,104.0,99.0,13.4,1505.3,323.3,-0.7,1.9,2470.072,13.32,0.028,92.0
2019-09-19T08:02:41,42.805,6.029,0.025,-0.01,-0.022,102.0,105.0,98.0,13.4,1505.3,323.7,-0.7,1.9,2470.072,13.32,0.026,111.8
2019-09-19T08:05:42,42.805,6.029,0.018,-0.015,0.002,101.0,105.0,98.0,13.4,1505.3,325.9,-0.7,1.8,2470.093,13.32,0.023,129.8
2019-09-19T08:08:43,42.805,6.029,-0.005,-0.015,-0.004,102.0,105.0,98.0,13.4,1505.3,326.9,-0.7,1.8,2470.085,13.32,0.015,198.4
2019-09-19T08:11:44,42.805,6.029,0.02,-0.003,0.03,101.0,106.0,98.0,13.4,1505.3,324.3,-0.7,1.8,2470.11,13.32,0.02,98.5
2019-09-19T08:14:45,42.805,6.029,0.02,0.009,0.027,102.0,107.0,98.0,13.4,1505.3,323.8,-0.7,1.8,2470.097,13.32,0.021,65.8
2019-09-19T08:17:46,42.805,6.029,0.025,-0.002,0.0,101.0,107.0,100.0,13.3,1505.3,324.8,-0.7,1.9,2470.135,13.32,0.025,94.6
2019-09-19T08:20:47,42.805,6.029,0.007,-0.01,-0.02,101.0,105.0,100.0,13.4,1505.3,326.6,-0.7,1.9,2470.098,13.33,0.012,145.0
2019-09-19T08:23:48,42.805,6.029,0.024,-0.016,0.0,102.0,106.0,98.0,13.4,1505.3,323.1,-0.7,1.8,2470.123,13.32,0.028,123.7
2019-09-19T08:26:49,42.805,6.029,0.027,0.0,0.002,101.0,106.0,98.0,13.4,1505.3,325.7,-0.7,1.8,2470.102,13.32,0.026,90.0
2019-09-19T08:29:50,42.805,6.029,0.014,0.0,0.005,100.0,106.0,99.0,13.3,1505.3,328.3,-0.7,1.9,2470.104,13.32,0.014,90.0
2019-09-19T08:32:51,42.805,6.029,-0.026,-0.02,-0.026,100.0,106.0,96.0,13.3,1505.3,327.4,-0.7,1.8,2470.108,13.33,0.032,232.4
2019-09-19T08:35:52,42.805,6.029,0.014,-0.007,0.018,102.0,106.0,98.0,13.4,1505.3,324.1,-0.7,1.8,2470.085,13.33,0.015,116.6
2019-09-19T08:38:53,42.805,6.029,0.007,-0.004,0.022,101.0,105.0,99.0,13.4,1505.3,324.2,-0.7,1.8,2470.114,13.33,0.008,119.7
2019-09-19T08:41:54,42.805,6.029,-0.006,-0.01,-0.029,102.0,105.0,99.0,13.3,1505.3,324.5,-0.7,1.9,2470.093,13.32,0.011,211.0
2019-09-19T08:44:55,42.805,6.029,0.021,-0.01,-0.01,101.0,105.0,99.0,13.4,1505.3,326.4,-0.7,1.8,2470.102,13.32,0.023,115.5
2019-09-19T08:47:56,42.805,6.029,0.027,0.0,0.024,101.0,107.0,98.0,13.3,1505.3,325.1,-0.7,1.8,2470.117,13.33,0.026,90.0
2019-09-19T08:50:57,42.805,6.029,0.029,-0.016,-0.02,101.0,106.0,98.0,13.4,1505.3,323.6,-0.7,1.9,2470.096,13.32,0.033,118.9
2019-09-19T08:53:58,42.805,6.029,0.037,-0.018,0.007,102.0,106.0,99.0,13.3,1505.3,327.3,-0.7,1.8,2470.103,13.32,0.041,115.9
2019-09-19T08:56:59,42.805,6.029,0.029,0.0,-0.012,102.0,105.0,99.0,13.4,1505.3,323.4,-0.7,1.8,2470.096,13.33,0.028,90.0
2019-09-19T09:00:00,42.805,6.029,0.052,-0.013,-0.007,101.0,107.0,99.0,13.4,1505.3,324.8,-0.7,1.8,2470.145,13.32,0.053,104.0
2019-09-19T09:03:01,42.805,6.029,0.02,-0.008,-0.006,102.0,105.0,99.0,13.4,1505.3,324.9,-0.8,1.8,2470.121,13.32,0.021,111.8
2019-09-19T09:06:02,42.805,6.029,0.003,-0.008,-0.014,102.0,105.0,99.0,13.4,1505.3,325.3,-0.7,1.9,2470.135,13.32,0.008,159.4
2019-09-19T09:09:03,42.805,6.029,0.035,0.013,-0.026,102.0,105.0,99.0,13.4,1505.3,324.2,-0.7,1.8,2470.154,13.32,0.037,69.6
2019-09-19T09:12:04,42.805,6.029,0.031,-0.008,0.002,102.0,106.0,99.0,13.3,1505.3,326.0,-0.7,1.8,2470.098,13.32,0.032,104.5
2019-09-19T09:15:05,42.805,6.029,0.029,-0.001,0.018,102.0,106.0,99.0,13.4,1505.3,325.7,-0.7,1.8,2470.111,13.32,0.029,92.0
2019-09-19T09:18:06,42.805,6.029,-0.003,-0.005,0.0,102.0,106.0,98.0,13.4,1505.3,324.9,-0.7,1.8,2470.107,13.33,0.005,211.0
2019-09-19T09:21:07,42.805,6.029,0.037,-0.017,0.011,104.0,106.0,98.0,13.3,1505.3,327.5,-0.7,1.8,2470.102,13.33,0.04,114.7
2019-09-19T09:24:08,42.805,6.029,0.021,-0.003,-0.028,101.0,105.0,99.0,13.4,1505.3,326.6,-0.7,1.8,2470.078,13.32,0.021,98.1
2019-09-19T09:27:09,42.805,6.029,-0.005,-0.022,0.011,102.0,106.0,99.0,13.3,1505.3,326.4,-0.7,1.8,2470.117,13.32,0.022,192.8
2019-09-19T09:30:10,42.805,6.029,0.013,0.002,-0.011,103.0,106.0,99.0,13.4,1505.3,324.4,-0.7,1.8,2470.136,13.32,0.013,81.3
2019-09-19T09:33:11,42.805,6.029,0.021,0.008,0.001,103.0,106.0,99.0,13.4,1505.3,327.0,-0.7,1.8,2470.114,13.32,0.022,69.1
2019-09-19T09:36:12,42.805,6.029,0.015,-0.011,-0.031,101.0,107.0,98.0,13.4,1505.3,326.5,-0.7,1.8,2470.157,13.32,0.018,126.3
2019-09-19T09:39:13,42.805,6.029,0.024,0.004,0.008,101.0,106.0,98.0,13.4,1505.3,322.9,-0.7,1.8,2470.148,13.32,0.024,80.5